Flag for Romania

Past Weather in Timișoara, Romania — Yesterday and Last 2 Weeks

Now
68 °F

Sunny.


Feels Like: 68 °F
Forecast: 88 / 61 °F
Wind: 6 mph from Southeast

Location: Timisoara Airport
Current Time: Aug 13, 2020 at 9:47:00 am
Latest Report: Aug 13, 2020 at 9:00 am
Visibility: 10 mi
Pressure30.04 "Hg
Humidity: 88%
Dew Point: 64 °F
Location of TimișoaraLocation

Past Weather in Timișoara — Graph

°F

Timișoara Temperature Yesterday

Maximum temperature yesterday: 88 °F (at 2:00 pm)
Minimum temperature yesterday: 63 °F (at 6:30 am)
Average temperature yesterday: 77 °F

High & Low Weather Summary for the Past Weeks

 TemperatureHumidityPressure
High93 °F (Jul 30, 6:00 pm)100% (Jul 30, 2:00 am)30.07 "Hg (Jul 30, 2:00 am)
Low57 °F (Aug 13, 5:30 am)22% (Aug 2, 5:00 pm)29.68 "Hg (Aug 4, 3:30 am)
Average76 °F66%29.95 "Hg
* Reported Jul 29 8:00 am — Aug 13 8:30 am, Timișoara. Weather by CustomWeather, © 2020

Note: Actual official high and low records may vary slightly from our data, if they occured in-between our weather recording intervals... More about our weather records

Timișoara Weather History for the Previous 24 Hours

Scroll right to see more
 ConditionsComfort  
Time TempWeatherWind HumidityBarometerVisibility
8:30 am
Thu, Aug 13
66 °FPassing clouds.5 mph88%30.04 "HgN/A
8:00 am63 °FPassing clouds.5 mph94%30.04 "HgN/A
7:30 am61 °FSunny.6 mph94%30.04 "Hg10 mi
7:00 am59 °FSunny.5 mph100%30.04 "Hg10 mi
6:30 am57 °FClear.5 mph100%30.04 "Hg10 mi
5:30 am57 °FClear.6 mph94%30.04 "Hg10 mi
5:00 am59 °FClear.7 mph88%30.01 "Hg10 mi
4:30 am61 °FCool.6 mph83%30.01 "HgN/A
3:30 am63 °FClear.6 mph83%30.01 "Hg10 mi
2:30 am64 °FClear.5 mph78%30.04 "Hg10 mi
2:00 am66 °FClear.3 mph73%30.01 "Hg10 mi
1:30 am66 °FPassing clouds.3 mph73%30.01 "HgN/A
1:00 am68 °FClear.6 mph69%30.01 "Hg10 mi
12:30 am68 °FClear.6 mph64%30.01 "Hg10 mi
12:00 am68 °FClear.7 mph69%30.01 "Hg10 mi
11:30 pm
Wed, Aug 12
70 °FClear.5 mph64%30.01 "Hg10 mi
11:00 pm70 °FClear.6 mph60%30.01 "Hg10 mi
10:00 pm73 °FPassing clouds.7 mph57%30.01 "HgN/A
9:30 pm73 °FClear.6 mph53%30.01 "Hg10 mi
9:00 pm77 °FClear.6 mph51%30.01 "Hg10 mi
8:30 pm81 °FSunny.7 mph42%30.01 "Hg10 mi
8:00 pm84 °FSunny.9 mph37%29.98 "Hg10 mi
7:30 pm86 °FPleasantly warm.12 mph33%29.98 "HgN/A
7:00 pm88 °FSunny.13 mph31%29.98 "Hg10 mi
6:30 pm88 °FPassing clouds.10 mph29%29.98 "HgN/A
6:00 pm88 °FPassing clouds.12 mph33%29.98 "HgN/A
5:30 pm88 °FPassing clouds.10 mph31%29.98 "HgN/A
5:00 pm88 °FPassing clouds.13 mph33%29.98 "HgN/A
4:30 pm88 °FPassing clouds.9 mph33%29.98 "HgN/A
4:00 pm88 °FPassing clouds.12 mph35%29.98 "HgN/A
3:30 pm88 °FPassing clouds.9 mph35%29.98 "HgN/A
3:00 pm88 °FPassing clouds.10 mph35%30.01 "HgN/A
2:30 pm88 °FSunny.9 mph38%30.01 "Hg10 mi
2:00 pm88 °FSunny.6 mph38%30.01 "Hg10 mi
1:30 pm86 °FSunny.8 mph40%30.01 "Hg10 mi
1:00 pm86 °FPassing clouds.8 mph43%30.01 "HgN/A
12:30 pm86 °FPassing clouds.7 mph46%30.01 "HgN/A
12:00 pm84 °FPassing clouds.7 mph51%30.04 "HgN/A
11:30 am84 °FPassing clouds.6 mph51%30.04 "HgN/A
11:00 am81 °FSunny.5 mph58%30.04 "Hg10 mi
10:30 am81 °FSunny.3 mph62%30.04 "Hg10 mi
10:00 am77 °FSunny.2 mph65%30.04 "Hg10 mi
9:30 am73 °FSunny.2 mph74%30.01 "Hg10 mi
9:00 am72 °FPassing clouds.5 mph78%30.01 "HgN/A
Weather by CustomWeather, © 2020

See weather overview